Location: Unspecified
(47.9110°N, 14.3980°E)
Time: 07:37:38
(UTC+00:00)

Cosmos 1867 - Pass Details

Date: 06 August 2020
Orbit: 777 x 798 km, 65.0° (Epoch: 26 September)

Event Time Altitude Azimuth Distance (km) Brightness Sun altitude
Exits shadow 20:24:02 20° 173° (S) 1,768 4.9 -16.0°
Maximum altitude 20:27:14 38° 117° (ESE) 1,191 4.0 -16.3°
Drops below altitude 10° 20:32:14 10° 50° (NE) 2,371 6.0 -16.9°
Sets 20:34:48 0° 43° (NE) 3,307 6.9 -17.2°
